This is the latest recevied weather packets stored in our database for station/object OH6GKW. If no packets are shown the sender has not sent any weather packets the latest 10 day(s).
| Time | Temp. | Humidity | Pressure | Rain* | Wind** | Luminosity | Snow |
|---|---|---|---|---|---|---|---|
| 1777718023 | 13.89° C | 54% | 1003 hPa | 0 mm | - | 385 W/m² | - |
| 1777717731 | 13.33° C | 58% | 1003.1 hPa | 0 mm | - | 385 W/m² | - |
| 1777717419 | 13.33° C | 59% | 1003.1 hPa | 0 mm | - | 345 W/m² | - |
| 1777717111 | 13.33° C | 60% | 1003.1 hPa | 0 mm | - | 336 W/m² | - |
| 1777716823 | 13.33° C | 62% | 1003.1 hPa | 0 mm | - | 419 W/m² | - |
| 1777716515 | 13.33° C | 61% | 1003.1 hPa | 0 mm | - | 359 W/m² | - |
| 1777716213 | 13.33° C | 61% | 1003.1 hPa | 0 mm | - | 371 W/m² | - |
| 1777715925 | 13.33° C | 62% | 1003.1 hPa | 0 mm | - | 350 W/m² | - |
| 1777715618 | 13.33° C | 62% | 1003.1 hPa | 0 mm | - | 357 W/m² | - |
| 1777715309 | 13.33° C | 62% | 1003.1 hPa | 0 mm | - | 315 W/m² | - |
| 1777715033 | 13.33° C | 61% | 1002.9 hPa | 0 mm | - | 396 W/m² | - |
| 1777714731 | 13.33° C | 62% | 1002.9 hPa | 0 mm | - | 389 W/m² | - |
| 1777714422 | 13.33° C | 61% | 1002.9 hPa | 0 mm | - | 262 W/m² | - |
| 1777714115 | 13.33° C | 62% | 1002.9 hPa | 0 mm | - | 262 W/m² | - |
| 1777713808 | 13.33° C | 61% | 1002.9 hPa | 0 mm | - | 289 W/m² | - |
| 1777713524 | 13.33° C | 62% | 1002.9 hPa | 0 mm | - | 289 W/m² | - |
| 1777713217 | 13.33° C | 62% | 1002.9 hPa | 0 mm | - | 734 W/m² | - |
| 1777712909 | 13.33° C | 61% | 1002.9 hPa | 0 mm | - | 653 W/m² | - |
| 1777712623 | 13.33° C | 62% | 1002.9 hPa | 0 mm | - | 642 W/m² | - |
| 1777712312 | 13.33° C | 61% | 1002.9 hPa | 0 mm | - | 640 W/m² | - |
| 1777712036 | 13.33° C | 62% | 1002.9 hPa | 0 mm | - | 676 W/m² | - |
| 1777711728 | 13.89° C | 60% | 1002.9 hPa | 0 mm | - | 714 W/m² | - |
| 1777711415 | 13.89° C | 60% | 1003 hPa | 0 mm | - | 686 W/m² | - |
| 1777711109 | 13.33° C | 60% | 1003 hPa | 0 mm | - | 704 W/m² | - |
| 1777710824 | 13.33° C | 61% | 1003 hPa | 0 mm | - | 727 W/m² | - |
* Rain since midnight (hover to see other rain measurements)
** Current wind speed in m/s (hover to see current wind gust speed)